Theta_e
312 313 313 314 314 314 315 315 314 314 313 313 314 313 313 313 315 317 318 321 320 318 316 321 324 330 327 327 329 334 335 337 338 341 340 337 336 334 334 335 338 337 338 342 342
312 313 314 315 315 315 316 316 315 314 314 314 316 315 313 314 317 322 324 322 321 318 315 325 328 327 325 327 329 333 336 338 334 334 336 334 335 335 335 336 339 340 340 341 340
313 314 315 316 316 317 317 317 315 314 314 314 316 315 314 315 324 332 327 325 318 315 318 327 326 325 326 328 330 333 336 336 333 331 331 333 333 333 335 337 338 342 341 340 340
313 315 315 316 317 318 318 318 315 315 315 315 315 316 314 316 336 327 316 316 315 315 322 325 325 326 326 329 331 333 334 335 332 331 331 332 331 332 334 335 336 342 340 338 338
314 315 316 317 318 319 319 318 315 316 316 316 316 315 315 324 331 325 316 315 315 317 324 325 324 325 327 329 331 332 332 333 332 331 331 330 330 331 331 334 337 341 339 337 336
315 316 316 317 318 319 320 319 315 316 316 316 315 314 316 329 330 326 317 316 318 321 323 323 324 324 325 328 330 331 331 332 331 331 331 331 330 331 331 334 336 341 339 337 334
316 317 317 318 319 319 320 318 316 316 316 317 314 315 328 329 331 326 320 319 322 321 321 322 323 324 325 327 328 329 330 330 330 331 332 332 332 332 331 334 334 339 341 339 337
318 318 318 319 319 320 321 318 317 316 317 317 317 318 332 325 329 325 322 321 321 320 321 321 323 324 325 326 327 328 328 330 331 333 333 332 333 334 333 334 335 337 339 340 339
318 319 319 319 320 320 320 320 317 317 318 317 322 320 328 322 328 328 323 322 321 320 320 321 322 323 324 326 326 327 326 326 328 330 332 333 335 334 334 334 335 336 338 339 339
318 319 319 319 320 321 321 322 323 317 319 317 321 328 328 322 327 326 323 322 321 320 320 321 322 324 325 325 324 325 326 327 327 329 332 330 330 334 335 336 335 334 336 338 339
318 318 319 319 320 321 323 326 327 329 326 330 325 327 323 323 328 325 323 322 321 320 322 322 323 324 324 325 326 326 326 327 328 329 329 329 329 330 330 331 330 332 332 334 337
318 318 320 320 320 321 325 326 322 322 323 325 325 323 324 328 327 327 324 322 321 321 322 325 324 326 327 327 326 326 326 326 327 327 327 327 327 329 329 329 330 330 330 331 335
316 317 319 321 321 326 324 325 323 322 325 329 324 324 323 324 327 327 325 323 323 322 323 325 327 326 326 326 325 325 324 325 325 327 328 328 326 327 328 328 329 329 330 330 330
313 314 318 322 323 324 326 325 324 322 327 329 326 324 323 322 325 327 326 325 327 326 327 327 327 327 325 325 325 325 326 326 326 326 327 329 328 331 330 329 329 329 330 330 332
311 312 317 320 321 322 324 323 324 323 334 329 327 323 323 324 327 326 327 325 329 329 328 328 327 326 325 325 325 325 328 327 327 327 328 328 328 329 330 330 330 330 330 331 331
312 311 316 321 321 323 323 323 325 326 327 329 327 324 324 324 326 326 327 326 329 329 330 328 328 327 326 326 325 327 327 327 327 327 328 328 329 329 330 330 330 332 332 333 333
312 312 316 320 324 324 323 325 330 327 328 328 327 325 325 325 326 327 326 328 329 328 329 330 328 328 326 326 326 327 327 328 329 329 330 333 329 331 332 332 332 334 335 336 336
312 312 320 319 322 323 325 328 331 330 326 327 327 326 325 326 326 326 327 328 328 329 330 332 330 329 328 328 327 328 328 328 332 331 331 333 332 332 333 331 333 337 337 337 337
311 315 323 325 324 323 326 330 329 328 327 326 326 327 327 326 326 326 326 328 329 329 330 331 330 329 328 328 328 329 330 330 331 331 331 331 331 334 335 336 337 338 337 336 335
311 320 324 326 324 325 328 328 329 328 326 326 327 327 327 327 326 327 327 327 330 330 330 331 332 329 329 328 328 328 329 330 332 334 334 332 334 336 337 338 337 337 336 334 333
312 325 326 325 325 326 330 328 328 327 326 327 327 327 327 328 328 326 327 330 330 330 329 328 330 331 328 328 328 329 329 331 330 331 332 332 335 342 342 340 339 335 334 333 332
315 325 324 323 326 327 330 329 326 327 326 325 326 329 329 330 328 327 332 332 328 329 330 332 333 332 329 330 329 329 329 331 332 331 330 331 333 338 338 337 336 334 333 332 331
317 319 320 321 327 330 331 329 328 327 326 327 326 327 329 330 329 328 332 327 327 329 333 335 332 331 330 330 330 330 331 331 333 334 334 334 331 337 335 335 334 333 332 331 330
317 324 323 322 322 326 332 330 328 325 325 327 328 329 330 330 329 329 330 328 326 327 323 330 332 332 331 331 330 332 333 332 333 334 332 332 332 332 337 335 332 330 329 328 327
320 323 324 328 327 327 326 328 328 327 324 325 326 328 330 331 331 330 330 329 327 324 326 331 332 330 330 330 331 330 330 330 330 329 329 328 327 328 332 330 329 328 327 325 322
320 322 322 323 321 325 323 325 325 326 326 327 326 329 327 330 333 334 332 332 331 329 329 332 333 330 329 327 326 325 325 325 324 323 324 323 323 328 325 323 322 322 321 320 319
317 318 318 318 321 324 322 323 324 324 325 324 326 327 327 327 326 326 326 327 329 329 329 329 330 330 329 326 325 325 325 324 324 325 327 327 326 324 322 320 319 318 318 319 319
Wind_Speed
18 18 18 18 19 20 20 20 19 17 15 11 11 10 9 9 8 9 8 10 16 7 14 9 12 12 13 19 18 18 12 6 14 23 26 7 13 13 4 13 15 13 13 18 19
19 19 19 20 20 20 21 21 20 16 14 11 11 10 9 10 10 12 10 11 13 12 15 14 13 12 16 15 19 13 12 15 11 10 9 9 11 10 7 12 20 17 16 18 20
19 19 20 21 21 21 21 23 19 16 13 11 10 10 9 9 8 6 15 14 14 13 14 12 11 13 16 20 18 18 12 14 8 10 11 10 3 3 3 4 17 23 19 18 20
20 20 21 21 21 22 21 22 18 16 14 12 10 9 7 7 3 1 4 9 12 13 14 15 16 16 15 17 19 15 15 9 3 7 5 3 6 1 2 4 11 22 21 20 19
21 21 21 21 22 22 21 20 17 16 13 10 9 7 7 8 7 0 2 10 12 18 13 14 17 16 15 20 18 17 12 13 6 5 8 3 7 6 10 10 15 20 19 19 19
21 21 21 21 22 22 21 19 17 17 10 7 5 6 7 12 3 3 4 11 11 13 11 14 14 16 20 22 19 12 14 18 13 11 14 10 12 10 8 12 14 18 17 17 18
21 21 21 21 22 22 22 17 17 13 8 4 3 5 8 6 3 4 10 11 10 11 12 13 15 16 13 14 13 18 11 12 16 17 16 11 8 13 11 18 13 17 17 17 16
22 22 21 21 21 21 20 18 18 10 5 3 4 5 7 6 8 9 11 9 8 10 10 10 10 12 15 16 22 11 12 16 17 20 20 6 13 20 17 16 16 17 16 19 18
22 22 22 21 20 21 17 18 11 4 4 4 2 4 10 7 11 11 12 10 8 8 9 6 8 15 16 13 13 13 14 19 20 19 15 12 12 16 15 16 13 19 17 19 21
24 23 22 21 19 19 15 15 8 0 2 7 9 8 13 10 13 12 11 9 9 8 10 10 11 12 14 13 12 17 18 15 13 18 11 9 16 13 14 22 15 13 15 22 23
24 23 21 20 18 14 11 11 5 2 6 12 8 8 5 12 13 12 11 9 10 10 12 15 11 13 17 18 17 20 14 15 14 7 9 5 9 16 18 17 17 12 14 17 23
24 24 22 18 15 7 10 8 5 7 11 16 17 13 4 11 12 14 12 13 14 11 14 10 13 16 15 13 7 11 11 14 15 14 13 16 16 15 15 21 16 14 11 14 17
24 24 22 16 11 5 9 5 7 10 8 13 15 16 15 11 15 17 17 18 12 13 14 16 14 10 7 6 6 12 12 13 13 12 11 11 15 16 17 25 16 20 8 8 13
23 23 21 16 6 6 4 5 8 7 4 11 13 9 17 15 15 18 17 16 10 13 15 11 15 7 6 10 10 11 14 14 11 12 9 12 14 14 19 17 15 18 6 16 6
22 23 17 17 10 5 6 8 9 3 5 16 13 12 15 17 11 13 17 19 17 10 7 12 12 9 8 11 9 11 8 9 7 9 12 15 9 12 1 17 11 11 3 16 17
21 22 18 11 9 7 9 10 6 5 8 9 10 12 16 21 8 15 17 18 12 14 11 15 5 4 10 11 11 8 4 8 11 11 12 16 12 12 1 8 8 21 21 16 16
21 20 17 10 4 6 9 5 5 8 3 11 11 15 17 15 14 10 15 15 12 10 15 16 16 13 7 10 10 8 9 8 9 10 12 9 13 12 8 13 17 18 21 17 16
22 19 13 7 7 7 6 7 8 13 10 6 4 12 15 16 16 13 13 13 16 18 15 12 14 17 13 8 8 14 11 9 13 12 8 11 7 9 16 19 21 23 19 15 14
23 12 9 7 2 5 8 9 9 10 13 4 10 9 12 17 10 14 14 14 18 16 9 7 4 12 6 3 7 7 11 13 11 12 11 9 11 20 18 18 21 20 17 16 14
25 15 8 8 6 4 7 14 15 7 6 6 12 13 14 15 12 9 14 12 7 8 5 5 6 7 10 1 9 10 9 5 6 8 10 10 6 5 11 14 13 15 15 12 11
18 9 6 3 5 9 8 15 11 5 5 7 11 17 11 11 18 15 9 9 4 6 4 8 3 13 6 6 12 6 9 7 8 7 8 9 3 9 12 12 13 13 11 10 8
7 6 3 3 10 12 11 10 6 6 2 8 7 13 10 13 7 7 12 7 5 4 2 5 2 9 15 16 14 8 10 10 7 9 9 10 8 11 11 10 11 10 7 6 7
9 16 11 6 7 9 14 6 3 5 7 5 6 8 7 9 4 11 13 8 6 3 5 5 5 7 12 13 15 9 6 8 7 3 9 10 9 10 10 16 10 8 8 7 7
7 5 10 10 17 12 13 4 9 5 9 4 10 5 8 8 12 7 8 5 3 10 5 5 4 7 10 17 13 11 13 8 10 7 10 12 15 11 11 10 5 6 9 13 14
5 3 7 6 3 8 7 11 10 7 8 3 8 10 9 9 12 12 9 11 5 6 3 1 6 10 14 15 17 15 16 16 17 16 15 16 17 13 13 10 11 9 11 14 17
8 8 11 18 16 11 8 9 12 8 1 5 7 10 4 5 8 12 11 6 6 12 6 7 5 8 13 14 16 19 19 19 19 17 17 16 15 12 16 16 18 18 20 20 19
12 8 9 10 12 7 11 10 11 9 4 6 9 8 4 10 11 9 9 8 8 4 2 5 5 7 12 13 15 15 14 11 10 17 5 6 10 12 10 14 16 21 23 19 19
Wind_Direction
351 349 346 343 339 335 333 331 330 328 325 326 322 318 311 302 289 267 241 240 231 254 207 193 210 237 240 249 246 262 273 277 233 124 230 165 121 98 93 111 74 66 99 138 150
348 347 344 342 339 334 331 329 331 329 324 321 319 310 302 299 293 251 236 242 238 236 197 195 216 222 231 246 246 232 261 261 25 25 90 88 70 126 194 157 127 109 112 137 150
346 345 343 341 338 333 331 330 331 326 320 314 312 306 293 303 299 210 222 242 233 215 191 205 224 223 239 246 236 227 263 312 100 29 341 64 177 60 82 248 154 136 138 147 155
344 344 342 339 334 331 332 330 326 324 318 310 303 291 279 280 331 158 243 212 194 186 196 226 236 237 246 251 245 236 268 295 39 137 238 311 22 292 168 1 96 131 146 153 162
343 342 340 336 331 331 332 329 324 324 319 309 298 268 260 259 236 3 191 173 173 176 207 219 231 242 241 251 249 239 266 283 229 235 232 66 263 213 280 151 121 132 153 160 164
341 339 336 333 332 331 330 327 324 323 320 313 288 238 249 255 229 135 161 162 167 187 221 220 230 238 259 263 277 251 246 263 291 235 251 209 241 221 224 146 137 146 165 170 172
337 336 336 333 331 330 329 326 322 321 315 297 239 237 252 277 199 160 167 167 184 214 227 230 241 273 256 274 279 278 288 269 256 255 248 248 273 259 263 159 159 160 174 178 183
336 335 335 332 331 328 329 325 321 314 290 217 225 253 280 181 180 172 182 193 214 216 239 234 243 265 262 277 282 274 261 262 261 246 247 197 272 278 197 161 171 176 180 181 183
334 334 334 332 330 328 330 327 328 341 156 135 150 267 251 212 184 187 189 197 202 217 222 260 243 247 257 242 262 242 250 239 246 251 223 195 246 271 158 175 209 187 187 187 182
333 333 333 331 330 330 337 326 322 299 222 255 229 263 229 202 181 179 187 199 201 210 221 227 228 239 236 258 239 247 226 231 254 266 188 230 271 249 212 233 199 211 213 192 185
332 331 331 331 329 332 360 353 318 228 237 246 146 254 147 173 166 186 189 204 199 210 222 203 224 228 228 225 246 271 307 303 308 322 312 239 277 294 295 273 268 193 231 226 188
331 330 330 332 326 340 353 343 1 324 298 254 243 233 187 171 183 193 187 194 199 217 217 205 228 250 238 256 338 314 297 276 291 302 299 290 276 258 262 268 265 273 267 258 207
329 329 330 335 326 7 328 299 330 324 268 258 207 218 206 205 209 193 190 213 190 218 209 244 239 204 309 288 247 264 265 281 268 286 290 278 261 259 254 262 244 265 233 307 300
329 329 333 336 322 299 325 330 329 319 276 197 194 214 187 199 232 198 196 209 223 234 242 225 260 229 226 248 254 251 239 231 267 277 272 285 303 244 218 222 238 243 222 240 343
329 327 332 321 306 288 314 319 318 289 280 144 162 145 179 198 213 201 190 216 253 224 259 238 224 253 245 251 228 258 346 337 292 281 288 279 264 270 288 183 198 174 199 68 48
328 327 324 317 308 328 310 308 308 236 247 149 143 191 178 213 214 176 186 218 246 258 249 261 263 280 249 225 243 289 282 259 262 256 254 250 253 277 80 166 130 78 78 67 67
326 321 308 282 196 288 310 291 239 247 117 155 172 180 186 195 220 173 195 200 224 216 238 224 236 219 216 260 197 206 248 257 235 226 240 303 215 240 77 89 86 91 82 65 61
327 321 308 284 258 292 289 235 245 262 230 68 157 173 196 200 217 187 192 218 219 258 279 235 201 194 180 228 245 201 226 256 298 307 339 201 253 253 107 117 104 98 94 90 72
328 323 293 311 316 250 249 227 235 263 351 129 202 241 223 233 202 190 224 211 213 205 256 320 139 87 119 201 239 252 240 234 278 293 282 288 287 13 83 86 87 91 85 79 85
329 325 258 196 232 242 246 248 277 331 334 325 284 204 232 219 182 228 207 235 118 35 20 323 313 171 142 192 261 273 302 301 246 254 268 277 39 82 109 110 107 96 89 76 64
328 297 159 219 221 238 241 244 265 126 359 286 275 290 266 259 201 227 231 97 70 122 297 287 294 284 240 219 247 218 215 242 259 279 313 309 60 102 75 103 102 94 80 71 54
314 275 183 204 232 232 239 251 343 285 202 272 268 297 309 314 297 225 65 67 61 4 244 47 316 278 277 308 325 306 300 307 294 276 280 292 301 102 120 100 104 97 78 53 42
314 286 265 226 252 244 248 240 233 284 267 270 243 252 314 291 294 268 98 87 68 61 33 21 219 254 259 253 253 250 288 266 273 274 267 279 282 136 130 121 79 50 32 359 1
302 290 206 227 258 289 295 280 229 184 292 271 289 354 275 244 256 267 129 109 86 78 56 329 277 268 277 302 323 284 281 232 237 253 274 269 283 294 90 95 87 41 5 355 353
253 287 358 295 355 320 294 300 302 207 203 225 254 247 240 247 238 216 263 116 160 139 208 321 258 261 268 275 287 293 288 285 281 279 271 273 282 314 47 32 34 31 7 343 338
301 343 337 300 290 299 284 268 258 262 120 243 240 299 254 255 314 8 355 186 184 160 228 141 274 291 277 280 276 270 266 264 263 270 273 271 272 44 34 20 11 355 343 329 333
344 297 268 287 287 259 259 254 258 277 84 301 328 327 220 22 2 5 354 352 2 341 193 235 263 286 272 292 299 275 269 276 277 251 335 296 46 55 20 7 352 342 338 14 354